Snow/Ice From: 17-12-2017 10:00 Until: 18-12-2017 06:00 warning for: Snow/Ice Level: Yellow info button

Although rather usual in this region, locally or potentially dangerous phenomena are expected. (such as local winds, summer thunderstorms, rising streams or high waves) Be aware and pay attention to the latest weather updates, especially if you carry out activities exposed to weather or close to a stream or shoreline. 


Meteo18 Weather Cam more information Meteo18 Weather Cam


Thunder radar more information blitzortung!


warning for Snow/Ice more information rain snow radar


Visit our other weather sites:

Template documentation
and downloads

And another site



Weather Underground History page Text

Daily Summary for March 18, 2017 Units:  Metric    English   Both
« Previous Day
Next Day »
Daily Weekly Monthly Yearly Custom
  High: Low: Average:
Temperature: 10.1 °C 6.4 °C 8.3 °C
Dew Point: 8.4 °C 4.7 °C 6.5 °C
Humidity: 91 % 83 % 89 %
Wind Speed: 30.6 km/h 0.0 km/h 12.1 km/h
Wind Gust: 38.6 km/h - -
Wind:- - WSW
Pressure: 1021.9 hPa 1019.9 hPa -
Precipitation: 0.0 mm    
Historical Graphs
 
 
Tabular Data for March 18, 2017
Time Temperature Dew Point Pressure Wind Wind Speed Wind Gust Humidity Rainfall Rate (Hourly)
00:02 7.4 °C 4.7 °C 1021.6 hPa West 4.8 km/h 8.0 km/h 83 % 0.0 mm
00:07 7.4 °C 4.9 °C 1021.6 hPa Calm   8.0 km/h 84 % 0.0 mm
00:12 7.3 °C 4.8 °C 1021.6 hPa SW 1.6 km/h 8.0 km/h 84 % 0.0 mm
00:17 7.3 °C 4.8 °C 1021.6 hPa WSW 3.2 km/h 8.0 km/h 84 % 0.0 mm
00:22 7.2 °C 4.8 °C 1021.6 hPa West 1.6 km/h 8.0 km/h 85 % 0.0 mm
00:32 7.2 °C 4.8 °C 1021.6 hPa West 1.6 km/h 6.4 km/h 85 % 0.0 mm
00:42 7.1 °C 4.7 °C 1021.6 hPa West 4.8 km/h 8.0 km/h 85 % 0.0 mm
00:47 7.1 °C 4.9 °C 1021.6 hPa WSW 3.2 km/h 9.7 km/h 86 % 0.0 mm
00:52 7.1 °C 4.9 °C 1021.6 hPa West 1.6 km/h 9.7 km/h 86 % 0.0 mm
00:57 7.2 °C 5.0 °C 1021.6 hPa WNW 3.2 km/h 8.0 km/h 86 % 0.0 mm
01:02 7.2 °C 5.0 °C 1021.6 hPa WSW 3.2 km/h 8.0 km/h 86 % 0.0 mm
01:07 7.2 °C 5.0 °C 1021.2 hPa West 1.6 km/h 9.7 km/h 86 % 0.0 mm
01:12 7.3 °C 4.9 °C 1021.2 hPa WSW 6.4 km/h 11.3 km/h 85 % 0.0 mm
01:17 7.3 °C 4.9 °C 1021.2 hPa SW 4.8 km/h 12.9 km/h 85 % 0.0 mm
01:22 7.2 °C 4.8 °C 1021.2 hPa SW 6.4 km/h 12.9 km/h 85 % 0.0 mm
01:27 7.1 °C 4.7 °C 1021.2 hPa WSW 8.0 km/h 11.3 km/h 85 % 0.0 mm
01:32 7.0 °C 4.8 °C 1021.2 hPa WSW 4.8 km/h 11.3 km/h 86 % 0.0 mm
01:37 7.1 °C 5.1 °C 1021.2 hPa WSW 6.4 km/h 11.3 km/h 87 % 0.0 mm
01:42 7.1 °C 5.1 °C 1021.6 hPa SW 4.8 km/h 14.5 km/h 87 % 0.0 mm
01:47 7.1 °C 5.1 °C 1021.6 hPa SW 1.6 km/h 14.5 km/h 87 % 0.0 mm
01:52 7.0 °C 5.0 °C 1021.6 hPa West 6.4 km/h 12.9 km/h 87 % 0.0 mm
01:57 6.9 °C 4.9 °C 1021.6 hPa WSW 6.4 km/h 12.9 km/h 87 % 0.0 mm
02:02 6.9 °C 4.9 °C 1021.6 hPa WSW 1.6 km/h 11.3 km/h 87 % 0.0 mm
02:07 6.9 °C 4.9 °C 1021.6 hPa WSW 4.8 km/h 11.3 km/h 87 % 0.0 mm
02:12 6.9 °C 4.9 °C 1021.6 hPa SW 6.4 km/h 12.9 km/h 87 % 0.0 mm
02:17 6.9 °C 4.9 °C 1021.6 hPa SW 3.2 km/h 12.9 km/h 87 % 0.0 mm
02:22 6.8 °C 4.8 °C 1021.2 hPa SW 6.4 km/h 12.9 km/h 87 % 0.0 mm
02:27 6.7 °C 5.0 °C 1021.2 hPa SW 4.8 km/h 12.9 km/h 89 % 0.0 mm
02:32 6.8 °C 5.0 °C 1021.2 hPa SW 4.8 km/h 12.9 km/h 88 % 0.0 mm
02:37 6.7 °C 4.9 °C 1021.6 hPa SW 6.4 km/h 17.7 km/h 88 % 0.0 mm
02:42 6.4 °C 4.7 °C 1021.2 hPa SW 9.7 km/h 11.3 km/h 89 % 0.0 mm
02:47 6.4 °C 4.9 °C 1021.2 hPa SW 4.8 km/h 12.9 km/h 90 % 0.0 mm
02:52 6.4 °C 4.9 °C 1021.2 hPa SW 3.2 km/h 14.5 km/h 90 % 0.0 mm
03:02 6.7 °C 5.0 °C 1020.9 hPa SW 8.0 km/h 14.5 km/h 89 % 0.0 mm
03:07 6.7 °C 4.9 °C 1020.9 hPa SSW 9.7 km/h 17.7 km/h 88 % 0.0 mm
03:12 6.7 °C 4.9 °C 1020.9 hPa SSW 6.4 km/h 17.7 km/h 88 % 0.0 mm
03:17 6.7 °C 4.9 °C 1020.9 hPa SW 4.8 km/h 17.7 km/h 88 % 0.0 mm
03:22 6.6 °C 4.9 °C 1020.9 hPa WSW 8.0 km/h 12.9 km/h 89 % 0.0 mm
03:27 6.6 °C 4.9 °C 1020.9 hPa SW 11.3 km/h 11.3 km/h 89 % 0.0 mm
03:32 6.7 °C 5.0 °C 1020.5 hPa WSW 12.9 km/h 14.5 km/h 89 % 0.0 mm
03:37 6.8 °C 5.0 °C 1020.5 hPa SW 9.7 km/h 17.7 km/h 88 % 0.0 mm
03:42 6.8 °C 5.0 °C 1020.9 hPa WSW 9.7 km/h 19.3 km/h 88 % 0.0 mm
03:47 6.8 °C 5.0 °C 1020.9 hPa WSW 17.7 km/h 19.3 km/h 88 % 0.0 mm
03:52 6.8 °C 5.0 °C 1020.9 hPa WSW 8.0 km/h 19.3 km/h 88 % 0.0 mm
03:57 6.8 °C 5.0 °C 1020.9 hPa SSW 8.0 km/h 19.3 km/h 88 % 0.0 mm
04:02 6.8 °C 5.0 °C 1020.9 hPa West 8.0 km/h 19.3 km/h 88 % 0.0 mm
04:07 6.8 °C 5.1 °C 1020.9 hPa WSW 8.0 km/h 20.9 km/h 89 % 0.0 mm
04:12 6.8 °C 5.1 °C 1020.9 hPa WSW 16.1 km/h 20.9 km/h 89 % 0.0 mm
04:17 6.8 °C 5.0 °C 1020.9 hPa SW 9.7 km/h 20.9 km/h 88 % 0.0 mm
04:22 6.8 °C 5.0 °C 1020.5 hPa WSW 8.0 km/h 20.9 km/h 88 % 0.0 mm
04:27 6.8 °C 5.1 °C 1020.5 hPa SSW 3.2 km/h 20.9 km/h 89 % 0.0 mm
04:32 6.7 °C 5.0 °C 1020.5 hPa SW 11.3 km/h 20.9 km/h 89 % 0.0 mm
04:37 6.6 °C 4.9 °C 1020.5 hPa SSW 11.3 km/h 14.5 km/h 89 % 0.0 mm
04:42 6.6 °C 4.9 °C 1020.5 hPa SW 12.9 km/h 19.3 km/h 89 % 0.0 mm
04:47 6.5 °C 5.0 °C 1020.5 hPa SW 11.3 km/h 19.3 km/h 90 % 0.0 mm
04:52 6.4 °C 4.9 °C 1020.5 hPa SSW 6.4 km/h 19.3 km/h 90 % 0.0 mm
04:57 6.4 °C 4.9 °C 1020.5 hPa SW 8.0 km/h 19.3 km/h 90 % 0.0 mm
05:02 6.4 °C 4.9 °C 1020.5 hPa SW 9.7 km/h 19.3 km/h 90 % 0.0 mm
05:12 6.4 °C 4.9 °C 1020.5 hPa SW 3.2 km/h 16.1 km/h 90 % 0.0 mm
05:17 6.5 °C 5.0 °C 1020.5 hPa SSW 9.7 km/h 19.3 km/h 90 % 0.0 mm
05:22 6.5 °C 5.0 °C 1020.5 hPa SW 14.5 km/h 19.3 km/h 90 % 0.0 mm
05:27 6.6 °C 5.1 °C 1020.5 hPa SW 6.4 km/h 19.3 km/h 90 % 0.0 mm
05:32 6.6 °C 5.2 °C 1020.5 hPa SW 9.7 km/h 19.3 km/h 91 % 0.0 mm
05:42 6.6 °C 5.2 °C 1020.2 hPa WSW 16.1 km/h 20.9 km/h 91 % 0.0 mm
05:52 6.6 °C 5.2 °C 1020.2 hPa West 14.5 km/h 19.3 km/h 91 % 0.0 mm
05:57 6.7 °C 5.3 °C 1020.2 hPa SW 4.8 km/h 20.9 km/h 91 % 0.0 mm
06:02 6.7 °C 5.3 °C 1020.5 hPa SW 14.5 km/h 20.9 km/h 91 % 0.0 mm
06:12 6.8 °C 5.3 °C 1020.2 hPa WSW 9.7 km/h 19.3 km/h 90 % 0.0 mm
06:17 6.9 °C 5.4 °C 1020.2 hPa SSW 9.7 km/h 17.7 km/h 90 % 0.0 mm
06:22 6.9 °C 5.4 °C 1020.2 hPa WSW 9.7 km/h 17.7 km/h 90 % 0.0 mm
06:32 7.1 °C 5.6 °C 1020.2 hPa SW 14.5 km/h 22.5 km/h 90 % 0.0 mm
06:42 7.1 °C 5.6 °C 1020.2 hPa SW 11.3 km/h 25.7 km/h 90 % 0.0 mm
06:47 7.1 °C 5.4 °C 1020.2 hPa WSW 14.5 km/h 25.7 km/h 89 % 0.0 mm
06:52 7.1 °C 5.4 °C 1020.2 hPa WSW 17.7 km/h 25.7 km/h 89 % 0.0 mm
06:57 7.1 °C 5.4 °C 1020.2 hPa SW 11.3 km/h 25.7 km/h 89 % 0.0 mm
07:02 7.2 °C 5.5 °C 1020.2 hPa WSW 16.1 km/h 25.7 km/h 89 % 0.0 mm
07:12 7.2 °C 5.5 °C 1020.2 hPa WSW 6.4 km/h 25.7 km/h 89 % 0.0 mm
07:22 7.2 °C 5.3 °C 1020.2 hPa WSW 12.9 km/h 25.7 km/h 88 % 0.0 mm
07:32 7.2 °C 5.3 °C 1020.2 hPa WSW 14.5 km/h 29.0 km/h 88 % 0.0 mm
07:37 7.2 °C 5.3 °C 1020.2 hPa WSW 12.9 km/h 29.0 km/h 88 % 0.0 mm
07:42 7.2 °C 5.3 °C 1020.2 hPa WSW 12.9 km/h 29.0 km/h 88 % 0.0 mm
07:47 7.1 °C 5.2 °C 1020.2 hPa SSW 9.7 km/h 32.2 km/h 88 % 0.0 mm
07:52 7.1 °C 5.2 °C 1019.9 hPa WNW 25.7 km/h 32.2 km/h 88 % 0.0 mm
08:02 7.1 °C 5.1 °C 1019.9 hPa SW 20.9 km/h 25.7 km/h 87 % 0.0 mm
08:07 7.1 °C 5.2 °C 1019.9 hPa West 20.9 km/h 35.4 km/h 88 % 0.0 mm
08:12 7.1 °C 5.1 °C 1019.9 hPa WSW 14.5 km/h 35.4 km/h 87 % 0.0 mm
08:17 7.1 °C 5.1 °C 1019.9 hPa WSW 20.9 km/h 37.0 km/h 87 % 0.0 mm
08:22 7.1 °C 5.1 °C 1020.2 hPa WSW 17.7 km/h 37.0 km/h 87 % 0.0 mm
08:32 7.0 °C 5.0 °C 1020.2 hPa SW 19.3 km/h 37.0 km/h 87 % 0.0 mm
08:37 6.9 °C 4.9 °C 1020.5 hPa West 11.3 km/h 33.8 km/h 87 % 0.0 mm
08:42 6.9 °C 5.1 °C 1020.5 hPa WSW 20.9 km/h 33.8 km/h 88 % 0.0 mm
08:47 6.9 °C 5.1 °C 1020.5 hPa West 8.0 km/h 27.4 km/h 88 % 0.0 mm
08:52 6.8 °C 5.0 °C 1020.5 hPa SW 16.1 km/h 27.4 km/h 88 % 0.0 mm
08:57 6.8 °C 5.1 °C 1020.5 hPa WSW 16.1 km/h 24.1 km/h 89 % 0.0 mm
09:02 6.8 °C 5.0 °C 1020.5 hPa West 19.3 km/h 24.1 km/h 88 % 0.0 mm
09:07 6.9 °C 5.1 °C 1020.5 hPa WSW 14.5 km/h 30.6 km/h 88 % 0.0 mm
09:12 6.9 °C 5.1 °C 1020.5 hPa West 11.3 km/h 30.6 km/h 88 % 0.0 mm
09:17 6.9 °C 5.1 °C 1020.5 hPa WSW 30.6 km/h 30.6 km/h 88 % 0.0 mm
09:22 6.8 °C 5.1 °C 1020.5 hPa West 22.5 km/h 30.6 km/h 89 % 0.0 mm
09:32 6.8 °C 5.1 °C 1020.9 hPa WSW 9.7 km/h 30.6 km/h 89 % 0.0 mm
09:37 6.9 °C 5.2 °C 1020.5 hPa West 16.1 km/h 30.6 km/h 89 % 0.0 mm
09:42 6.9 °C 5.4 °C 1020.9 hPa West 4.8 km/h 30.6 km/h 90 % 0.0 mm
09:47 6.9 °C 5.4 °C 1020.9 hPa WSW 8.0 km/h 29.0 km/h 90 % 0.0 mm
09:52 6.9 °C 5.4 °C 1020.9 hPa West 14.5 km/h 29.0 km/h 90 % 0.0 mm
10:02 7.1 °C 5.6 °C 1020.9 hPa WSW 4.8 km/h 35.4 km/h 90 % 0.0 mm
10:12 7.3 °C 5.6 °C 1020.9 hPa WSW 20.9 km/h 35.4 km/h 89 % 0.0 mm
10:17 7.3 °C 5.6 °C 1020.9 hPa WSW 29.0 km/h 29.0 km/h 89 % 0.0 mm
10:22 7.3 °C 5.6 °C 1021.2 hPa WSW 19.3 km/h 25.7 km/h 89 % 0.0 mm
10:27 7.4 °C 5.7 °C 1021.2 hPa SW 11.3 km/h 33.8 km/h 89 % 0.0 mm
10:37 7.4 °C 5.7 °C 1021.2 hPa West 16.1 km/h 33.8 km/h 89 % 0.0 mm
10:42 7.4 °C 5.7 °C 1021.2 hPa WSW 9.7 km/h 33.8 km/h 89 % 0.0 mm
10:47 7.5 °C 5.8 °C 1021.2 hPa WSW 14.5 km/h 35.4 km/h 89 % 0.0 mm
10:52 7.4 °C 5.7 °C 1021.6 hPa SW 16.1 km/h 35.4 km/h 89 % 0.0 mm
11:02 7.4 °C 5.7 °C 1021.6 hPa WNW 14.5 km/h 29.0 km/h 89 % 0.0 mm
11:12 7.5 °C 6.0 °C 1021.6 hPa West 14.5 km/h 32.2 km/h 90 % 0.0 mm
11:17 7.5 °C 6.0 °C 1021.6 hPa SW 14.5 km/h 29.0 km/h 90 % 0.0 mm
11:22 7.5 °C 6.0 °C 1021.6 hPa West 19.3 km/h 29.0 km/h 90 % 0.0 mm
11:27 7.6 °C 6.1 °C 1021.6 hPa WSW 17.7 km/h 33.8 km/h 90 % 0.0 mm
11:32 7.6 °C 6.1 °C 1021.6 hPa WSW 19.3 km/h 33.8 km/h 90 % 0.0 mm
11:37 7.7 °C 6.2 °C 1021.9 hPa WSW 24.1 km/h 33.8 km/h 90 % 0.0 mm
11:42 7.6 °C 6.1 °C 1021.9 hPa West 16.1 km/h 37.0 km/h 90 % 0.0 mm
11:47 7.7 °C 6.2 °C 1021.6 hPa West 11.3 km/h 37.0 km/h 90 % 0.0 mm
11:52 7.7 °C 6.2 °C 1021.6 hPa WSW 16.1 km/h 37.0 km/h 90 % 0.0 mm
11:57 7.7 °C 6.2 °C 1021.6 hPa West 12.9 km/h 33.8 km/h 90 % 0.0 mm
12:02 7.8 °C 6.3 °C 1021.9 hPa WNW 11.3 km/h 33.8 km/h 90 % 0.0 mm
12:12 7.8 °C 6.3 °C 1021.6 hPa WSW 8.0 km/h 29.0 km/h 90 % 0.0 mm
12:17 7.8 °C 6.3 °C 1021.6 hPa WSW 9.7 km/h 29.0 km/h 90 % 0.0 mm
12:22 7.9 °C 6.4 °C 1021.6 hPa WSW 16.1 km/h 29.0 km/h 90 % 0.0 mm
12:27 7.9 °C 6.4 °C 1021.6 hPa WSW 16.1 km/h 29.0 km/h 90 % 0.0 mm
12:32 8.0 °C 6.5 °C 1021.6 hPa WSW 14.5 km/h 27.4 km/h 90 % 0.0 mm
12:37 8.1 °C 6.6 °C 1021.6 hPa WSW 9.7 km/h 27.4 km/h 90 % 0.0 mm
12:42 8.1 °C 6.6 °C 1021.6 hPa WSW 17.7 km/h 24.1 km/h 90 % 0.0 mm
12:47 8.2 °C 6.5 °C 1021.6 hPa West 16.1 km/h 27.4 km/h 89 % 0.0 mm
12:52 8.2 °C 6.7 °C 1021.6 hPa WSW 16.1 km/h 27.4 km/h 90 % 0.0 mm
12:57 8.2 °C 6.7 °C 1021.6 hPa WSW 24.1 km/h 25.7 km/h 90 % 0.0 mm
13:02 8.3 °C 6.8 °C 1021.6 hPa WSW 24.1 km/h 25.7 km/h 90 % 0.0 mm
13:12 8.3 °C 6.8 °C 1021.6 hPa WSW 24.1 km/h 32.2 km/h 90 % 0.0 mm
13:17 8.3 °C 6.8 °C 1021.6 hPa SW 12.9 km/h 32.2 km/h 90 % 0.0 mm
13:22 8.4 °C 6.9 °C 1021.6 hPa WSW 14.5 km/h 32.2 km/h 90 % 0.0 mm
13:27 8.4 °C 6.9 °C 1021.2 hPa WSW 14.5 km/h 32.2 km/h 90 % 0.0 mm
13:32 8.4 °C 6.9 °C 1021.2 hPa West 16.1 km/h 32.2 km/h 90 % 0.0 mm
13:37 8.6 °C 7.1 °C 1021.2 hPa WSW 16.1 km/h 29.0 km/h 90 % 0.0 mm
13:42 8.7 °C 7.2 °C 1021.2 hPa SSW 11.3 km/h 35.4 km/h 90 % 0.0 mm
13:47 8.8 °C 7.1 °C 1021.2 hPa WSW 12.9 km/h 35.4 km/h 89 % 0.0 mm
13:52 8.9 °C 7.2 °C 1021.2 hPa West 19.3 km/h 35.4 km/h 89 % 0.0 mm
13:57 9.0 °C 7.3 °C 1021.2 hPa WSW 16.1 km/h 27.4 km/h 89 % 0.0 mm
14:02 9.0 °C 7.3 °C 1020.9 hPa WSW 16.1 km/h 27.4 km/h 89 % 0.0 mm
14:07 9.0 °C 7.3 °C 1020.9 hPa SW 14.5 km/h 30.6 km/h 89 % 0.0 mm
14:12 9.0 °C 7.3 °C 1021.2 hPa SW 11.3 km/h 33.8 km/h 89 % 0.0 mm
14:17 9.1 °C 7.4 °C 1020.9 hPa WSW 22.5 km/h 33.8 km/h 89 % 0.0 mm
14:22 9.2 °C 7.5 °C 1020.9 hPa West 11.3 km/h 33.8 km/h 89 % 0.0 mm
14:32 9.4 °C 7.7 °C 1021.2 hPa SW 11.3 km/h 33.8 km/h 89 % 0.0 mm
14:37 9.4 °C 7.5 °C 1020.9 hPa SW 16.1 km/h 33.8 km/h 88 % 0.0 mm
14:42 9.4 °C 7.5 °C 1020.9 hPa WSW 12.9 km/h 33.8 km/h 88 % 0.0 mm
14:47 9.4 °C 7.5 °C 1020.9 hPa West 6.4 km/h 30.6 km/h 88 % 0.0 mm
14:52 9.3 °C 7.4 °C 1020.9 hPa WSW 14.5 km/h 25.7 km/h 88 % 0.0 mm
14:57 9.3 °C 7.4 °C 1021.2 hPa WSW 19.3 km/h 25.7 km/h 88 % 0.0 mm
15:02 9.3 °C 7.4 °C 1021.2 hPa SW 16.1 km/h 25.7 km/h 88 % 0.0 mm
15:07 9.4 °C 7.7 °C 1021.2 hPa West 11.3 km/h 30.6 km/h 89 % 0.0 mm
15:12 9.3 °C 7.4 °C 1021.2 hPa WSW 27.4 km/h 32.2 km/h 88 % 0.0 mm
15:17 9.3 °C 7.6 °C 1020.9 hPa West 11.3 km/h 32.2 km/h 89 % 0.0 mm
15:22 9.3 °C 7.6 °C 1020.9 hPa WSW 20.9 km/h 32.2 km/h 89 % 0.0 mm
15:27 9.3 °C 7.6 °C 1020.9 hPa WSW 19.3 km/h 33.8 km/h 89 % 0.0 mm
15:32 9.4 °C 7.7 °C 1020.9 hPa WSW 19.3 km/h 33.8 km/h 89 % 0.0 mm
15:37 9.4 °C 7.7 °C 1020.9 hPa WSW 12.9 km/h 33.8 km/h 89 % 0.0 mm
15:42 9.5 °C 7.8 °C 1020.5 hPa SW 27.4 km/h 30.6 km/h 89 % 0.0 mm
15:47 9.5 °C 7.8 °C 1020.5 hPa WSW 25.7 km/h 30.6 km/h 89 % 0.0 mm
15:52 9.6 °C 7.9 °C 1020.2 hPa SW 11.3 km/h 30.6 km/h 89 % 0.0 mm
15:57 9.7 °C 8.0 °C 1020.2 hPa West 19.3 km/h 38.6 km/h 89 % 0.0 mm
16:02 9.7 °C 7.8 °C 1020.2 hPa WSW 24.1 km/h 38.6 km/h 88 % 0.0 mm
16:12 9.9 °C 8.2 °C 1020.2 hPa WSW 20.9 km/h 30.6 km/h 89 % 0.0 mm
16:22 9.9 °C 8.0 °C 1020.2 hPa West 24.1 km/h 29.0 km/h 88 % 0.0 mm
16:32 9.9 °C 8.0 °C 1020.2 hPa WSW 14.5 km/h 32.2 km/h 88 % 0.0 mm
16:37 9.9 °C 8.0 °C 1020.5 hPa West 9.7 km/h 37.0 km/h 88 % 0.0 mm
16:42 9.9 °C 8.0 °C 1020.2 hPa West 9.7 km/h 35.4 km/h 88 % 0.0 mm
16:47 9.9 °C 8.0 °C 1020.2 hPa West 9.7 km/h 35.4 km/h 88 % 0.0 mm
16:52 9.8 °C 8.1 °C 1020.2 hPa West 16.1 km/h 35.4 km/h 89 % 0.0 mm
16:57 9.8 °C 8.1 °C 1020.2 hPa SW 20.9 km/h 33.8 km/h 89 % 0.0 mm
17:02 9.8 °C 8.1 °C 1020.2 hPa WSW 16.1 km/h 33.8 km/h 89 % 0.0 mm
17:07 9.8 °C 8.1 °C 1020.2 hPa SW 14.5 km/h 30.6 km/h 89 % 0.0 mm
17:12 9.8 °C 8.1 °C 1020.2 hPa SW 11.3 km/h 30.6 km/h 89 % 0.0 mm
17:17 9.8 °C 8.1 °C 1020.2 hPa WSW 16.1 km/h 29.0 km/h 89 % 0.0 mm
17:22 9.8 °C 8.1 °C 1020.2 hPa WSW 16.1 km/h 29.0 km/h 89 % 0.0 mm
17:32 9.8 °C 8.1 °C 1020.5 hPa WNW 20.9 km/h 30.6 km/h 89 % 0.0 mm
17:37 9.8 °C 8.1 °C 1020.9 hPa West 12.9 km/h 37.0 km/h 89 % 0.0 mm
17:42 9.8 °C 8.1 °C 1020.9 hPa NW 14.5 km/h 32.2 km/h 89 % 0.0 mm
17:47 9.8 °C 8.1 °C 1020.9 hPa WSW 16.1 km/h 32.2 km/h 89 % 0.0 mm
17:52 9.8 °C 8.1 °C 1020.5 hPa WSW 11.3 km/h 25.7 km/h 89 % 0.0 mm
17:57 9.8 °C 8.1 °C 1020.5 hPa West 19.3 km/h 24.1 km/h 89 % 0.0 mm
18:02 9.8 °C 8.1 °C 1020.5 hPa WSW 16.1 km/h 24.1 km/h 89 % 0.0 mm
18:07 9.8 °C 8.1 °C 1020.5 hPa SW 12.9 km/h 27.4 km/h 89 % 0.0 mm
18:17 9.8 °C 8.1 °C 1020.5 hPa West 14.5 km/h 27.4 km/h 89 % 0.0 mm
18:22 9.8 °C 8.1 °C 1020.5 hPa WSW 20.9 km/h 37.0 km/h 89 % 0.0 mm
18:32 9.9 °C 8.0 °C 1020.5 hPa WNW 12.9 km/h 37.0 km/h 88 % 0.0 mm
18:37 9.9 °C 8.0 °C 1020.5 hPa SW 17.7 km/h 37.0 km/h 88 % 0.0 mm
18:42 9.9 °C 7.8 °C 1020.5 hPa West 11.3 km/h 27.4 km/h 87 % 0.0 mm
18:52 9.9 °C 8.0 °C 1020.9 hPa SW 9.7 km/h 29.0 km/h 88 % 0.0 mm
18:57 9.9 °C 7.8 °C 1020.9 hPa SSW 9.7 km/h 24.1 km/h 87 % 0.0 mm
19:02 9.9 °C 7.8 °C 1020.9 hPa SW 9.7 km/h 24.1 km/h 87 % 0.0 mm
19:12 9.9 °C 7.8 °C 1020.9 hPa West 12.9 km/h 24.1 km/h 87 % 0.0 mm
19:17 9.9 °C 7.8 °C 1020.9 hPa SW 17.7 km/h 22.5 km/h 87 % 0.0 mm
19:22 9.9 °C 7.8 °C 1020.9 hPa SSW 16.1 km/h 22.5 km/h 87 % 0.0 mm
19:27 10.0 °C 7.9 °C 1020.9 hPa WSW 14.5 km/h 25.7 km/h 87 % 0.0 mm
19:32 10.0 °C 7.9 °C 1020.9 hPa WSW 9.7 km/h 25.7 km/h 87 % 0.0 mm
19:42 10.0 °C 7.9 °C 1020.9 hPa WSW 9.7 km/h 25.7 km/h 87 % 0.0 mm
19:47 10.0 °C 7.9 °C 1020.9 hPa SW 9.7 km/h 24.1 km/h 87 % 0.0 mm
19:52 10.1 °C 8.0 °C 1021.2 hPa WSW 12.9 km/h 22.5 km/h 87 % 0.0 mm
19:57 10.1 °C 8.0 °C 1021.2 hPa SSW 9.7 km/h 19.3 km/h 87 % 0.0 mm
20:02 10.1 °C 8.0 °C 1021.2 hPa WSW 6.4 km/h 19.3 km/h 87 % 0.0 mm
20:07 10.1 °C 8.0 °C 1021.2 hPa SSW 3.2 km/h 24.1 km/h 87 % 0.0 mm
20:12 10.1 °C 8.0 °C 1021.6 hPa WSW 8.0 km/h 19.3 km/h 87 % 0.0 mm
20:17 10.1 °C 8.0 °C 1021.6 hPa WSW 9.7 km/h 19.3 km/h 87 % 0.0 mm
20:22 10.1 °C 8.0 °C 1021.2 hPa SW 9.7 km/h 19.3 km/h 87 % 0.0 mm
20:32 10.1 °C 8.2 °C 1021.6 hPa SSW 4.8 km/h 14.5 km/h 88 % 0.0 mm
20:37 10.1 °C 8.2 °C 1021.6 hPa WSW 11.3 km/h 22.5 km/h 88 % 0.0 mm
20:42 10.1 °C 8.2 °C 1021.6 hPa SSW 9.7 km/h 22.5 km/h 88 % 0.0 mm
20:47 10.1 °C 8.2 °C 1021.6 hPa WSW 9.7 km/h 22.5 km/h 88 % 0.0 mm
20:52 10.1 °C 8.2 °C 1021.6 hPa SSW 8.0 km/h 22.5 km/h 88 % 0.0 mm
20:57 10.1 °C 8.2 °C 1021.6 hPa WSW 1.6 km/h 22.5 km/h 88 % 0.0 mm
21:02 10.1 °C 8.2 °C 1021.6 hPa SSW 3.2 km/h 22.5 km/h 88 % 0.0 mm
21:07 10.1 °C 8.2 °C 1021.6 hPa West 6.4 km/h 16.1 km/h 88 % 0.0 mm
21:12 10.1 °C 8.2 °C 1021.6 hPa WSW 6.4 km/h 16.1 km/h 88 % 0.0 mm
21:17 10.1 °C 8.2 °C 1021.6 hPa SW 8.0 km/h 20.9 km/h 88 % 0.0 mm
21:27 10.1 °C 8.4 °C 1021.6 hPa West 8.0 km/h 20.9 km/h 89 % 0.0 mm
21:32 10.1 °C 8.4 °C 1021.2 hPa WSW 11.3 km/h 20.9 km/h 89 % 0.0 mm
21:37 10.1 °C 8.4 °C 1021.6 hPa SW 9.7 km/h 19.3 km/h 89 % 0.0 mm
21:42 10.1 °C 8.4 °C 1021.6 hPa SSW 9.7 km/h 19.3 km/h 89 % 0.0 mm
21:47 10.1 °C 8.4 °C 1021.6 hPa SW 12.9 km/h 19.3 km/h 89 % 0.0 mm
21:57 10.1 °C 8.4 °C 1021.6 hPa SW 12.9 km/h 19.3 km/h 89 % 0.0 mm
22:02 10.1 °C 8.4 °C 1021.6 hPa SW 14.5 km/h 19.3 km/h 89 % 0.0 mm
22:07 10.1 °C 8.4 °C 1021.6 hPa SW 12.9 km/h 17.7 km/h 89 % 0.0 mm
22:17 10.1 °C 8.4 °C 1021.6 hPa SSW 8.0 km/h 17.7 km/h 89 % 0.0 mm
22:22 10.1 °C 8.4 °C 1021.6 hPa SW 6.4 km/h 17.7 km/h 89 % 0.0 mm
22:32 10.1 °C 8.4 °C 1021.2 hPa WSW 8.0 km/h 19.3 km/h 89 % 0.0 mm
22:42 10.0 °C 8.3 °C 1021.2 hPa SW 12.9 km/h 19.3 km/h 89 % 0.0 mm
22:47 10.0 °C 8.3 °C 1021.2 hPa WSW 12.9 km/h 20.9 km/h 89 % 0.0 mm
22:52 10.0 °C 8.4 °C 1020.9 hPa SSW 11.3 km/h 20.9 km/h 90 % 0.0 mm
22:57 9.9 °C 8.3 °C 1020.9 hPa WSW 6.4 km/h 20.9 km/h 90 % 0.0 mm
23:02 9.9 °C 8.3 °C 1020.9 hPa West 14.5 km/h 20.9 km/h 90 % 0.0 mm
23:07 9.9 °C 8.3 °C 1020.9 hPa SW 8.0 km/h 22.5 km/h 90 % 0.0 mm
23:12 9.9 °C 8.3 °C 1020.9 hPa SW 8.0 km/h 22.5 km/h 90 % 0.0 mm
23:17 9.9 °C 8.3 °C 1020.9 hPa WSW 11.3 km/h 22.5 km/h 90 % 0.0 mm
23:22 9.9 °C 8.3 °C 1020.9 hPa WSW 14.5 km/h 22.5 km/h 90 % 0.0 mm
23:32 9.9 °C 8.3 °C 1020.9 hPa SW 6.4 km/h 22.5 km/h 90 % 0.0 mm
23:37 9.9 °C 8.3 °C 1020.9 hPa SSW 9.7 km/h 25.7 km/h 90 % 0.0 mm
23:42 9.9 °C 8.3 °C 1021.2 hPa WNW 11.3 km/h 25.7 km/h 90 % 0.0 mm
23:52 10.0 °C 8.4 °C 1021.2 hPa West 11.3 km/h 25.7 km/h 90 % 0.0 mm
23:57 10.0 °C 8.4 °C 1021.2 hPa West 12.9 km/h 24.1 km/h 90 % 0.0 mm
Meteo18
Compliments of Weather Underground - 4 mb

Script developed by  Jim McMurry - jmcmurry@mwt.net Adapted for the template by  Wim van der Kuil - Leuven-Template.eu

You find our weather info also at:

European Weather Network

Weather Underground

Equipment we use:

Weather-station
Davis Vue

Weather-program
Meteohub

Weather-server
Raspberry PI 2 B+

Provider
1 and 1

Davis Vue

Meteohub

Raspberry PI 2 B+

1 and 1